User: anonymous   Login
Location: Solon
(41.3849°N, 81.4081°W)
Time: 12:17:55
(UTC-05:00)
Language:

CZ-2C R/B - Orbit

View from above orbital plane
View from above orbital plane
View from above satellite
View from above satellite

Ground track
Ground track

The orbit data is extracted from the following two-line orbital elements,

1 28480U 04046B   17054.47319889  .00000022  00000-0  23967-4 0  9997
2 28480  98.1923 158.0205 0141777 199.6886 221.8665 14.25627259638034
Epoch (UTC): 23 February 2017 11:21:24
Eccentricity: 0.0141777
inclination: 98.1923°
perigee height: 704 km
apogee height: 908 km
right ascension of ascending node: 158.0205°
argument of perigee: 199.6886°
revolutions per day: 14.25627259
mean anomaly at epoch: 221.8665°
orbit number at epoch: 63803

The dashed part of the orbit path shows where the satellite is in the earth's shadow,  

DLR